VR2R-13 Tai Mo Shan HK current weather conditions

sailwx.info

Wind from 024 at 5 knots gusting 8

Air temperature 21.1° C
Dewpoint 17.7° C

Last reported at 2020-Oct-26 09:01 UTC.
Time now 2020-Oct-26 10:12 UTC

Location: N 22°25' E 114°08'.
View on Google Maps.

See reports from other nearby stations

  
Tides and Currents Weather Stations Pressure Air Temp Water Temp Dewpoint Dewpoint Depression Visibility Wind Speed Wind Dir Waves Ship Positions
date/time (UTC)wind fromknots sea level pressurealtimeterstation pressurevisibilityair tempwater tempwave heightnotes
2020-Oct-26 09:01 024 5 gusting 8 21.1
2020-Oct-26 08:56 033 5 gusting 8 21.1
2020-Oct-26 08:51 017 4 gusting 7 21.1
2020-Oct-26 08:46 21.1
2020-Oct-26 08:41 003 3 gusting 6 21.1
2020-Oct-26 08:36 030 0 gusting 6 21.1
2020-Oct-26 08:31 017 5 gusting 6 21.1
2020-Oct-26 08:26 022 4 gusting 6 21.1
2020-Oct-26 08:21 008 2 gusting 6 21.7
2020-Oct-26 08:16 026 3 gusting 5 21.7
2020-Oct-26 08:06 050 2 gusting 6 21.7
2020-Oct-26 08:01 031 21.7
2020-Oct-26 07:56 038 2 gusting 6 22.2
2020-Oct-26 07:51 051 3 gusting 6 22.2
2020-Oct-26 07:46 042 1 gusting 6 22.2
2020-Oct-26 07:41 014 3 gusting 6 22.2
2020-Oct-26 07:36 032 0 gusting 3 22.2
2020-Oct-26 07:31 084 3 gusting 7 22.2
2020-Oct-26 07:26 048 2 gusting 6 22.2
2020-Oct-26 07:21 027 3 gusting 6 22.2
2020-Oct-26 07:16 010 2 gusting 4 22.2
2020-Oct-26 07:11 072 4 gusting 8 22.2
2020-Oct-26 07:06 307 3 gusting 8 22.2
2020-Oct-26 07:01 001 3 gusting 6 22.2
2020-Oct-26 06:56 063 4 gusting 6 22.2
2020-Oct-26 06:51 047 3 gusting 6 22.8
2020-Oct-26 06:46 033 2 gusting 6 22.8
2020-Oct-26 06:41 007 0 gusting 5 22.8
2020-Oct-26 06:36 064 2 gusting 8 22.8
2020-Oct-26 06:31 014 6 gusting 8 22.8
2020-Oct-26 06:26 030 1 gusting 6 22.8
2020-Oct-26 06:21 063 4 gusting 6 22.8
2020-Oct-26 06:16 054 2 gusting 5 22.8
2020-Oct-26 06:11 129 0 gusting 4 22.8
2020-Oct-26 06:06 142 0 gusting 2 22.2
2020-Oct-26 06:01 093 22.2
2020-Oct-26 05:56 036 2 gusting 6 22.2
2020-Oct-26 05:51 096 3 gusting 6 22.8
2020-Oct-26 05:46 027 0 gusting 3 22.8
2020-Oct-26 05:41 039 0 gusting 6 22.8
2020-Oct-26 05:36 081 4 gusting 13 22.8
2020-Oct-26 05:31 360 5 gusting 8 23.3
2020-Oct-26 05:26 360 2 gusting 8 23.3
2020-Oct-26 05:21 311 5 gusting 13 23.3
2020-Oct-26 05:16 066 3 gusting 6 23.3
2020-Oct-26 05:11 083 3 gusting 6 23.3
2020-Oct-26 05:06 178 3 gusting 7 22.8
2020-Oct-26 05:01 134 2 gusting 7 22.8
2020-Oct-26 04:56 169 0 gusting 6 22.8
2020-Oct-26 04:51 109 2 gusting 8 22.2
2020-Oct-26 04:46 056 5 gusting 8 22.2
2020-Oct-26 04:36 050 6 gusting 9 22.2
2020-Oct-26 04:31 070 6 gusting 9 22.2
2020-Oct-26 04:26 060 5 gusting 8 22.2
2020-Oct-26 04:21 058 5 gusting 8 21.7
2020-Oct-26 04:16 038 4 gusting 9 21.7
2020-Oct-26 04:11 046 3 gusting 9 22.2
2020-Oct-26 04:06 019 5 gusting 8 22.2
2020-Oct-26 04:01 042 2 gusting 10 21.7
2020-Oct-26 03:56 038 6 gusting 10 21.7
2020-Oct-26 03:51 095 4 gusting 6 21.7
2020-Oct-26 00:01
2020-Oct-25 22:01 055
2020-Oct-25 20:01
2020-Oct-25 19:01
2020-Oct-25 18:06
2020-Oct-25 18:01
2020-Oct-25 17:03
2020-Oct-25 16:01 059 13 17.2
2020-Oct-25 15:16
2020-Oct-25 15:11
2020-Oct-25 15:06
2020-Oct-25 15:01 17.2
2020-Oct-25 14:26 064 12 17.2
2020-Oct-25 14:21 053 12 17.2
2020-Oct-25 14:16 17.2
2020-Oct-25 14:11 069 11 17.2
2020-Oct-25 14:06 066 11 17.2
2020-Oct-25 14:01 078 10 17.2
2020-Oct-25 13:41 057 11 17.2
2020-Oct-25 13:36 079 13 17.2
2020-Oct-25 13:32 068 11 17.2
2020-Oct-25 13:26 061 13 17.2
2020-Oct-25 13:21 064 11 17.2
2020-Oct-25 13:16 041 10 17.2
2020-Oct-25 13:11
2020-Oct-25 13:08
2020-Oct-25 13:01
2020-Oct-25 12:56
2020-Oct-25 12:51
2020-Oct-25 12:46
2020-Oct-25 12:41
2020-Oct-25 12:36
2020-Oct-25 12:31
2020-Oct-25 12:26
2020-Oct-25 12:21
2020-Oct-25 12:16
2020-Oct-25 12:11
2020-Oct-25 12:06
2020-Oct-25 12:01
2020-Oct-25 11:56
2020-Oct-25 11:51
2020-Oct-25 11:46
2020-Oct-25 11:41
2020-Oct-25 11:36
2020-Oct-25 11:31
2020-Oct-25 11:26
2020-Oct-25 11:21
2020-Oct-25 11:16
2020-Oct-25 11:11
2020-Oct-25 11:06
2020-Oct-25 11:01
2020-Oct-25 10:56
2020-Oct-25 10:51
2020-Oct-25 10:46
2020-Oct-25 10:41
2020-Oct-25 10:36
2020-Oct-25 10:31
2020-Oct-25 10:26
2020-Oct-25 10:21
2020-Oct-25 10:16 17.8
2020-Oct-25 10:11 17.8
2020-Oct-25 10:06 17.8
2020-Oct-25 10:01 18.3
2020-Oct-25 09:56 18.9
2020-Oct-25 09:51 18.9
2020-Oct-25 09:46 18.9
2020-Oct-25 09:42 19.4
2020-Oct-25 09:36 19.4
2020-Oct-25 09:31 19.4
2020-Oct-25 09:26 18.9
2020-Oct-25 09:21 19.4
2020-Oct-25 09:16 18.9
2020-Oct-25 09:11 18.9
2020-Oct-25 09:06 18.9
2020-Oct-25 09:01 18.9
2020-Oct-25 08:56 18.3
2020-Oct-25 08:51 18.9
2020-Oct-25 08:46 18.9
2020-Oct-25 08:41 18.9
2020-Oct-25 08:36 18.3
2020-Oct-25 08:31 18.3
2020-Oct-25 08:26 18.9
2020-Oct-25 08:21 18.9
2020-Oct-25 08:16 057 12 18.9
2020-Oct-25 08:11 059 11 18.9
2020-Oct-25 08:01 079 11 18.9
2020-Oct-25 07:56 070 11 18.9
2020-Oct-25 07:51 058 9 18.9
2020-Oct-25 07:46 066 11 18.9
2020-Oct-25 07:41 061 1 18.9
2020-Oct-25 07:31 056 11 18.9
2020-Oct-25 07:26 068 11 18.9
2020-Oct-25 07:21 073 11 18.9
2020-Oct-25 07:16 052 11 18.9
2020-Oct-25 07:11 061 10 18.9
2020-Oct-25 07:06 058 12 18.9
2020-Oct-25 07:01 059 10 18.9
2020-Oct-25 06:56 062 10 18.9
2020-Oct-25 06:51 045 9 18.9
2020-Oct-25 06:46 059 10 18.9
2020-Oct-25 06:42 058 5 19.4
2020-Oct-25 06:36 061 8 19.4
2020-Oct-25 06:31 043 7 19.4
2020-Oct-25 06:26 033 6 19.4
2020-Oct-25 06:21 059 7 19.4
2020-Oct-25 06:16 067 6 19.4
2020-Oct-25 06:11 055 6 19.4
2020-Oct-25 06:06 074 5 19.4
2020-Oct-25 06:01 055 1 19.4
2020-Oct-25 05:56 051 7 19.4
2020-Oct-25 05:51 058 8 19.4
2020-Oct-25 05:46 047 9 18.9
2020-Oct-25 05:41 055 11 18.9
2020-Oct-25 05:36 074 11 18.9
2020-Oct-25 05:31 058 9 18.9
2020-Oct-25 05:21 052 8 18.9
2020-Oct-25 05:16 058 8 gusting 13 18.9
2020-Oct-25 05:11 068 8 gusting 13 18.9
2020-Oct-25 05:06 079 9 gusting 13 18.9
2020-Oct-25 05:01 074 7 gusting 12 18.9
2020-Oct-25 04:56 054 6 gusting 9 18.9
2020-Oct-25 04:46 069 18.9
2020-Oct-25 04:41 076 7 gusting 12 18.9
2020-Oct-25 04:36 069 8 gusting 12 18.9
2020-Oct-25 04:31 064 10 gusting 13 18.9
2020-Oct-25 04:26 069 10 gusting 13 18.9
2020-Oct-25 04:21 071 8 gusting 13 18.9
2020-Oct-25 04:16 063 8 gusting 13 18.9
2020-Oct-25 04:11 068 3 gusting 11 18.9
2020-Oct-25 04:06 081 8 gusting 12 18.9
2020-Oct-25 04:01 089 8 gusting 13 18.9
2020-Oct-25 03:56 052 10 gusting 13 18.9
2020-Oct-25 03:51 070 18.9
2020-Oct-25 03:46 063 9 gusting 12 18.9
2020-Oct-25 03:41 071 7 gusting 13 18.9
2020-Oct-25 03:31 062 4 gusting 12 19.4
2020-Oct-25 03:26 066 10 gusting 12 19.4
2020-Oct-25 03:21 069 1 gusting 11 19.4
2020-Oct-25 03:16 053 2 gusting 8 19.4
2020-Oct-25 03:11 071 8 gusting 12 19.4
2020-Oct-25 03:06 067 5 gusting 9 19.4
2020-Oct-25 03:01 078 8 gusting 12 19.4
2020-Oct-25 02:56 067 8 gusting 11 19.4
2020-Oct-25 02:51 078 8 gusting 15 19.4
2020-Oct-25 02:46 061 13 gusting 15 19.4
2020-Oct-25 02:41 067 12 gusting 14 18.9
2020-Oct-25 02:36 064 14 gusting 17 18.9
2020-Oct-25 02:31 072 13 gusting 17 18.9
2020-Oct-25 02:26 065 15 gusting 22 18.9
2020-Oct-25 02:21 071 17 gusting 22 18.9
2020-Oct-25 02:16 080 15 gusting 23 18.3
2020-Oct-25 02:11 076 17 gusting 23 18.3
2020-Oct-25 02:06 081 21 gusting 25 18.3
2020-Oct-25 02:01 062 19 gusting 26 18.3
2020-Oct-25 01:56 086 19 gusting 24 18.3
2020-Oct-25 01:51 067 17.8
2020-Oct-25 01:46 076 19 gusting 24 17.8
2020-Oct-25 01:41 068 6 gusting 21 17.2
2020-Oct-25 01:36 071 18 gusting 23 17.2
2020-Oct-25 01:31 071 19 gusting 23 17.2
2020-Oct-25 01:26 066 18 gusting 22 17.2
2020-Oct-25 01:21 069 18 gusting 22 17.2
2020-Oct-25 01:16 061 16 gusting 22 17.2
2020-Oct-25 01:11 056 18 gusting 24 17.8
2020-Oct-25 01:06 076 18 gusting 24 17.2
2020-Oct-25 01:01 056 18 gusting 24 17.2
2020-Oct-25 00:56 065 17 gusting 20 17.2
2020-Oct-25 00:51 075 19 gusting 26 17.2
2020-Oct-25 00:46 071 19 gusting 24 16.7
2020-Oct-25 00:41 066 19 gusting 25 16.7
2020-Oct-25 00:36 061 8 gusting 21 16.7
2020-Oct-25 00:31 062 18 gusting 24 16.7
2020-Oct-25 00:26 064 19 gusting 23 16.1
2020-Oct-25 00:21 059 19 gusting 23 16.1
2020-Oct-25 00:16 061 19 gusting 24 16.1
2020-Oct-25 00:11 060 18 gusting 24 16.1
2020-Oct-25 00:06 067 18 gusting 22 16.1
2020-Oct-25 00:01 070 17 gusting 22 16.1
2020-Oct-24 23:56 062 17 gusting 24 16.1
2020-Oct-24 23:51 063 19 gusting 24 16.1
2020-Oct-24 23:46 057 20 gusting 25 16.1
2020-Oct-24 23:41 070 20 gusting 25 16.1
2020-Oct-24 23:36 069 8 gusting 22 16.1
2020-Oct-24 23:31 064 20 gusting 22 16.1
2020-Oct-24 23:26 061 19 gusting 20 16.1
2020-Oct-24 23:21 062 18 gusting 20 16.1
2020-Oct-24 23:16 058 18 gusting 26 16.1
2020-Oct-24 23:11 064 18 gusting 26 16.7
2020-Oct-24 23:06 051 20 gusting 24 16.7
2020-Oct-24 23:01 065 19 gusting 24 16.7
2020-Oct-24 22:56 044 19 gusting 24 16.1
2020-Oct-24 22:51 061 19 gusting 27 16.1
2020-Oct-24 22:46 072 19 gusting 27 16.1
2020-Oct-24 22:41 050 19 gusting 25 16.1
2020-Oct-24 22:36 062 20 gusting 25 16.1
2020-Oct-24 22:31 062 19 gusting 23 16.1
2020-Oct-24 22:26 052 19 gusting 25 16.1
2020-Oct-24 22:21 064 19 gusting 25 16.1
2020-Oct-24 22:16 051 19 gusting 24 16.1
2020-Oct-24 22:11 062 19 gusting 24 16.1
2020-Oct-24 22:06 066 18 gusting 24 16.1
2020-Oct-24 22:01 056 19 gusting 24 16.1
2020-Oct-24 21:56 063 19 gusting 25 16.1
2020-Oct-24 21:51 064 19 gusting 26 16.7
2020-Oct-24 21:46 058 20 gusting 27 16.7
2020-Oct-24 21:41 058 22 gusting 27 16.7
2020-Oct-24 21:36 046 22 gusting 27 16.7
2020-Oct-24 21:31 048 23 gusting 29 16.7
2020-Oct-24 21:26 052 24 gusting 30 16.7
2020-Oct-24 21:22 069 24 gusting 32 16.7
2020-Oct-24 21:16 072 26 gusting 33 16.7
2020-Oct-24 21:11 067 26 gusting 33 16.7
2020-Oct-24 21:06 052 26 gusting 33 17.2
2020-Oct-24 21:01 062 25 gusting 31 16.7
2020-Oct-24 20:56 057 26 gusting 31 16.7
2020-Oct-24 20:51 057 25 gusting 30 16.7
2020-Oct-24 20:46 056 26 gusting 30 16.7
2020-Oct-24 20:41 054 24 gusting 30 16.1
2020-Oct-24 20:36 057 25 gusting 30 16.1
2020-Oct-24 20:31 059 23 gusting 28 16.1
2020-Oct-24 20:26 068 24 gusting 28 16.1
2020-Oct-24 20:21 061 23 gusting 28 16.1
2020-Oct-24 20:16 058 24 gusting 30 16.1
2020-Oct-24 20:11 058 24 gusting 30 16.1
2020-Oct-24 20:06 060 24 gusting 28 16.1
2020-Oct-24 20:01 064 20 gusting 27 16.1
2020-Oct-24 19:56 054 24 gusting 32 16.1
2020-Oct-24 19:51 049 26 gusting 32 16.1
2020-Oct-24 19:46 059 23 gusting 29 16.1
2020-Oct-24 19:41 052 23 gusting 27 16.1
2020-Oct-24 19:36 065 23 gusting 26 16.1
2020-Oct-24 19:31 059 23 gusting 29 16.1
2020-Oct-24 19:26 060 24 gusting 29 16.1
2020-Oct-24 19:21 071 23 gusting 27 16.1
2020-Oct-24 19:16 070 23 gusting 27 16.1
2020-Oct-24 19:11 060 23 gusting 28 16.1
2020-Oct-24 19:06 051 24 gusting 28 16.1
2020-Oct-24 19:01 057 24 gusting 29 16.1
2020-Oct-24 18:56 064 24 gusting 29 16.1
2020-Oct-24 18:51 061 25 gusting 29 16.1
2020-Oct-24 18:46 052 25 gusting 29 16.1
2020-Oct-24 18:41 069 25 gusting 30 16.1
2020-Oct-24 18:36 064 23 gusting 32 16.1
2020-Oct-24 18:32 059 24 gusting 32 16.1
2020-Oct-24 18:26 070 24 gusting 31 16.1
2020-Oct-24 18:21 049 26 gusting 29 16.1
2020-Oct-24 18:16 061 23 gusting 29 16.1
2020-Oct-24 18:11 064 23 gusting 31 16.7
2020-Oct-24 18:06 059 24 gusting 31 16.7
2020-Oct-24 18:01 070 24 gusting 29 16.1
2020-Oct-24 17:56 063 23 gusting 28 16.1
2020-Oct-24 17:51 063 24 gusting 28 16.7
2020-Oct-24 17:46 073 23 gusting 29 16.7
2020-Oct-24 17:41 057 23 gusting 28 16.7
2020-Oct-24 17:36 065 26 gusting 30 16.7
2020-Oct-24 17:31 073 4 gusting 25 16.7
2020-Oct-24 17:26 051 24 gusting 31 16.7
2020-Oct-24 17:21 057 25 gusting 31 16.7
2020-Oct-24 17:16 088 25 gusting 31 16.7
2020-Oct-24 17:11 079 23 gusting 31 16.7
2020-Oct-24 17:06 065 23 gusting 29 16.7
2020-Oct-24 17:01 084 23 gusting 30 16.7
2020-Oct-24 16:56 059 24 gusting 31 16.7
2020-Oct-24 16:51 064 25 gusting 31 16.1
2020-Oct-24 16:46 073 22 gusting 29 16.1
2020-Oct-24 16:41 067 24 gusting 28 16.1
2020-Oct-24 16:36 060 24 gusting 27 16.1
2020-Oct-24 16:31 069 23 gusting 27 16.7
2020-Oct-24 16:26 065 22 gusting 28 16.7
2020-Oct-24 16:21 059 22 gusting 28 16.7
2020-Oct-24 16:16 072 23 gusting 28 16.7
2020-Oct-24 16:11 062 22 gusting 26 16.1
2020-Oct-24 16:06 071 14 gusting 26 16.1
2020-Oct-24 15:56 054 20 gusting 25 16.7
2020-Oct-24 15:51 059 20 gusting 26 16.7
2020-Oct-24 15:46 063 21 gusting 26 16.7
2020-Oct-24 15:41 048 21 gusting 28 16.7
2020-Oct-24 15:31 056 21 gusting 27 16.7
2020-Oct-24 15:26 057 14 gusting 26 16.7
2020-Oct-24 15:21 072 22 gusting 26 16.7
2020-Oct-24 15:11 068 22 gusting 29 16.7
2020-Oct-24 15:06 089 23 gusting 27 16.7
2020-Oct-24 15:01 071 22 gusting 27 16.7
2020-Oct-24 14:56 044 21 gusting 26 16.1
2020-Oct-24 14:51 066 12 gusting 23 16.1
2020-Oct-24 14:46 053 19 gusting 24 16.1
2020-Oct-24 14:41 055 19 gusting 24 16.1
2020-Oct-24 14:36 066 18 gusting 24 16.1
2020-Oct-24 14:31 065 19 gusting 25 16.1
2020-Oct-24 14:26 060 19 gusting 26 16.1
2020-Oct-24 14:21 074 21 gusting 26 16.1
2020-Oct-24 14:16 057 19 gusting 24 16.1
2020-Oct-24 14:11 057 20 gusting 24 16.1
2020-Oct-24 14:06 048 19 gusting 24 16.1
2020-Oct-24 14:01 056 20 gusting 24 16.1
2020-Oct-24 13:56 061 18 gusting 23 16.1
2020-Oct-24 13:51 051 19 gusting 23 16.1
2020-Oct-24 13:46 042 19 gusting 24 16.1
2020-Oct-24 13:41 051 20 gusting 25 16.1
2020-Oct-24 13:36 049 20 gusting 25 16.1
2020-Oct-24 13:31 055 19 gusting 23 16.1
2020-Oct-24 13:26 049 19 gusting 24 16.1
2020-Oct-24 13:21 052 20 gusting 27 16.1
2020-Oct-24 13:16 056 21 gusting 27 16.1
2020-Oct-24 13:11 053 22 gusting 27 16.1
2020-Oct-24 13:06 065 22 gusting 26 16.1
2020-Oct-24 13:01 064 22 gusting 28 16.1
2020-Oct-24 12:56 060 22 gusting 30 16.1
2020-Oct-24 12:51 057 24 gusting 31 16.1
2020-Oct-24 12:46 049 25 gusting 31 16.1
2020-Oct-24 12:41 051 23 gusting 30 16.1
2020-Oct-24 12:36 047 25 gusting 29 16.1
2020-Oct-24 12:26 070 18 gusting 26 16.1
2020-Oct-24 12:21 052 24 gusting 28 16.1
2020-Oct-24 12:16 052 22 gusting 26 16.1
2020-Oct-24 12:11 071 21 gusting 26 16.1
2020-Oct-24 12:06 044 19 gusting 28 16.1
2020-Oct-24 12:01 059 22 gusting 28 16.1
2020-Oct-24 11:56 032 21 gusting 26 16.1
2020-Oct-24 11:51 057 20 gusting 26 16.1
2020-Oct-24 11:46 044 20 gusting 26 16.1
2020-Oct-24 11:41 072 20 gusting 26 16.1
2020-Oct-24 11:36 049 21 gusting 26 16.1
2020-Oct-24 11:31 063 20 gusting 26 16.1
2020-Oct-24 11:26 050 21 gusting 26 16.1
2020-Oct-24 11:21 060 17 gusting 24 16.1
2020-Oct-24 11:16 060 21 gusting 26 16.1
2020-Oct-24 11:11 064 19 gusting 26 16.1
2020-Oct-24 11:06 049 21 gusting 26 16.1
2020-Oct-24 11:01 051 19 gusting 24 16.1
2020-Oct-24 10:56 059 9 gusting 24 16.1
2020-Oct-24 10:51 055 19 gusting 24 16.1
2020-Oct-24 10:46 063 5 gusting 22 16.1
2020-Oct-24 10:41 065 19 gusting 23 16.1
2020-Oct-24 10:36 053 19 gusting 24 16.1
2020-Oct-24 10:31 063 19 gusting 23 16.1
2020-Oct-24 10:26 061 5 gusting 22 16.1
2020-Oct-24 10:21 062 17 gusting 21 16.7
2020-Oct-24 10:16 053 16.1
2020-Oct-24 10:11 062 19 gusting 25 16.7
2020-Oct-24 10:06 051 18 gusting 25 16.7